CZ-6A DEB, 56625

Orbit data source: Space-Track

CZ-6A DEB, 56625 is space debris in SSO originally from a launch on Fri, 11 Nov 2022 UTC launched from the Taiyaun Space Center, China (TSC). Debris objects in space refer to the collection of defunct objects orbiting the Earth. Examples of debris include non-operational satellites, rocket bodies, and fragments generated from explosions, collisions, or faulty payload assembly.

Loading next visibility...
Identifier
56625, 2022-151AEZ
Orbit
SSO
Country
Flag of CNCN / PRC
Related business
Manufacturer
SAST
Mission
Spacecraft
Bus & Motor
Unknown
Mass
Unknown
Launch date (UTC)
2022-11-11 (4 years ago)
Launch vehicle
Unknown
Launch site
Taiyaun Space Center, China (TSC)
Object type
Payload
Rocket body
Debris
Shape & HBR
Unknown shape, 0.1 m
Radar Cross Section
Small (<0.1 m²)

Expand to show TLE details & history
Last TLE update: 3 days ago

TLE from 3 days ago
0 CZ-6A DEB
1 56625U 22151AEZ 26170.21735987  .00000135  00000-0  10982-3 0  9995
2 56625  98.8937 159.8798 0081413  17.9336 342.4674 14.03715424161372
Epoch: 2026-06-19T05:12Z
TLE epoch observation values (Epoch: 2026-06-19T05:12:59.892Z)
Latitude
-0.00007°
Longitude
174.18076°
Altitude
827.524 km
Speed
7.468 km/s
True Right ascension
10h 39m 31s
True Declination
0° 00' 00"
Sunlit
Object was in daylight at epoch
Visualization orbit readout
Latitude
Unknown
Longitude
Unknown
Altitude
Unknown
Speed
Unknown
Apparent Right ascension
Unknown
Apparent Declination
Unknown
Sunlit
N/A
Visualization observer readout
Local Sidereal Time
21:33:42
Azimuth
Unknown
Elevation
Unknown
Doppler factor
Unknown
Orbital elements
Apogee altitude
937.222 km
Perigee altitude
819.071 km
Semi-major axis
7,256.284 km
Eccentricity
0.00814
Inclination
98.8937°
RAAN
159.8798°
Arg. of periapsis
17.9336°
True anomaly
342.18361°
Mean anomaly
342.4674°
Eccentric anomaly
342.32578°
Mean motion
3.51133 °/min
Orbital period
102.53 mins
BSTAR
0.00010982
Loading maneuver chart data...
Computing Atmospheric mass density...
Loading historical data...
Loading historical data...
Loading historical data...
Loading historical data...
Loading historical data...
Loading historical data...
Loading historical data...

Documentation

Showing up to 5 results
|